Weather History for KONM - June, 2014

Change the Weather History Date:

Tuesday, June 10, 2014

  Actual Average Record
Temperature  
Mean Temperature 74 °F -  
Max Temperature 94 °F 88 °F 102 °F (2013)
Min Temperature 54 °F 51 °F 54 °F (2014)
Cooling Degree Days 9    
Growing Degree Days 24 (Base 50)    
Moisture  
Dew Point 24 °F    
Average Humidity 17    
Maximum Humidity 34    
Minimum Humidity 6    
Precipitation  
Precipitation 0.00 in - - ()
Sea Level Pressure  
Sea Level Pressure 30.02 in    
Wind  
Wind Speed 7 mph (East)    
Max Wind Speed 16 mph    
Max Gust Speed 23 mph    
Visibility 10 miles    
Events      
Averages and records for this station are not official NWS values.
T = Trace of Precipitation, MM = Missing Value Source: NWS Daily Summary

Daily Weather History Graph

Daily Weather History Graph

Search for Another Location

Airport or City:

Trip Planner

Search our weather history database for the weather conditions in past years. The results will help you decide how hot, cold, wet, or windy it might be!

Date:

Astronomy

Jun. 10, 2014 Rise Set
Actual Time 5:55 AM MDT 8:18 PM MDT
Civil Twilight 5:26 AM MDT 8:47 PM MDT
Nautical Twilight 4:50 AM MDT 9:23 PM MDT
Astronomical Twilight 4:11 AM MDT 10:02 PM MDT
Moon 5:52 PM MDT (6/10) 3:56 AM MDT (6/10)
Length of Visible Light 15h 20m
Length of Day
14h 22m
Waxing Gibbous, 92% of the Moon is Illuminated
Jun 10
Waxing Gibbous
Jun 12
Full
Jun 19
Last Quarter
Jun 27
New
Jul 5
First Quarter

Hourly Weather History & Observations

Time (MDT) Temp. Dew Point Humidity Pressure Visibility Wind Dir Wind Speed Gust Speed Precip Events Conditions
12:15 AM 68.5 °F 7.7 °F 9% 30.02 in 10.0 mi NW 10.4 mph - N/A   Clear
12:35 AM 65.3 °F 7.5 °F 10% 30.02 in 10.0 mi NNW 10.4 mph - N/A   Clear
12:55 AM 62.8 °F 12.6 °F 14% 30.03 in 10.0 mi ENE 3.5 mph - N/A   Clear
1:15 AM 61.7 °F 9.7 °F 13% 30.04 in 10.0 mi Calm Calm - N/A   Clear
1:35 AM 61.9 °F 9.0 °F 12% 30.05 in 10.0 mi West 9.2 mph - N/A   Clear
1:55 AM 64.8 °F 7.9 °F 11% 30.04 in 10.0 mi NW 10.4 mph 17.3 mph N/A   Clear
2:15 AM 64.0 °F 13.6 °F 14% 30.04 in 10.0 mi NNW 13.8 mph - N/A   Clear
2:35 AM 64.6 °F 25.5 °F 23% 30.04 in 10.0 mi North 9.2 mph - N/A   Clear
3:15 AM 62.8 °F 29.3 °F 28% 30.06 in 10.0 mi SE 9.2 mph - N/A   Clear
3:35 AM 57.0 °F 23.0 °F 27% 30.06 in 10.0 mi Calm Calm - N/A   Clear
3:55 AM 58.8 °F 28.4 °F 31% 30.06 in 10.0 mi NW 9.2 mph - N/A   Clear
4:15 AM 59.4 °F 29.8 °F 33% 30.06 in 10.0 mi NNW 3.5 mph - N/A   Clear
4:35 AM 59.2 °F 28.8 °F 31% 30.06 in 10.0 mi WNW 3.5 mph - N/A   Clear
4:55 AM 56.3 °F 19.6 °F 24% 30.06 in 10.0 mi WNW 5.8 mph - N/A   Clear
5:15 AM 54.5 °F 19.4 °F 25% 30.06 in 10.0 mi West 4.6 mph - N/A   Clear
5:35 AM 54.1 °F 19.6 °F 26% 30.07 in 10.0 mi NW 4.6 mph - N/A   Clear
5:55 AM 54.7 °F 23.9 °F 30% 30.07 in 10.0 mi NNW 4.6 mph - N/A   Clear
6:15 AM 55.0 °F 27.0 °F 34% 30.08 in 10.0 mi NW 5.8 mph - N/A   Clear
6:35 AM 57.4 °F 26.8 °F 31% 30.09 in 10.0 mi NNW 3.5 mph - N/A   Clear
6:55 AM 59.5 °F 28.9 °F 31% 30.09 in 10.0 mi NNW 4.6 mph - N/A   Clear
7:15 AM 61.3 °F 29.1 °F 30% 30.09 in 10.0 mi NNW 5.8 mph - N/A   Clear
7:35 AM 64.2 °F 30.7 °F 29% 30.10 in 10.0 mi Calm Calm - N/A   Clear
7:55 AM 65.1 °F 32.0 °F 29% 30.10 in 10.0 mi North 6.9 mph - N/A   Clear
8:15 AM 66.4 °F 32.7 °F 29% 30.10 in 10.0 mi North 5.8 mph - N/A   Clear
8:35 AM 68.4 °F 32.0 °F 26% 30.11 in 10.0 mi North 6.9 mph - N/A   Clear
8:55 AM 69.1 °F 31.6 °F 25% 30.11 in 10.0 mi North 5.8 mph - N/A   Clear
9:15 AM 70.9 °F 30.7 °F 23% 30.11 in 10.0 mi North 5.8 mph - N/A   Clear
9:35 AM 72.1 °F 30.6 °F 22% 30.10 in 10.0 mi NNE 4.6 mph - N/A   Clear
9:55 AM 73.0 °F 31.3 °F 21% 30.11 in 10.0 mi Calm Calm - N/A   Clear
10:15 AM 75.7 °F 31.8 °F 20% 30.11 in 10.0 mi NE 3.5 mph - N/A   Clear
10:35 AM 77.0 °F 32.9 °F 20% 30.11 in 10.0 mi NE 3.5 mph - N/A   Clear
10:55 AM 77.9 °F 33.3 °F 20% 30.10 in 10.0 mi ENE 3.5 mph - N/A   Clear
11:15 AM 80.1 °F 31.5 °F 17% 30.09 in 10.0 mi ENE 4.6 mph - N/A   Clear
11:55 AM 81.3 °F 34.2 °F 18% 30.08 in 10.0 mi East 4.6 mph - N/A   Clear
12:15 PM 83.5 °F 30.2 °F 15% 30.08 in 10.0 mi SE 6.9 mph - N/A   Clear
12:35 PM 86.4 °F 27.7 °F 12% 30.07 in 10.0 mi SE 12.7 mph 18.4 mph N/A   Clear
1:15 PM 89.1 °F 27.9 °F 11% 30.05 in 10.0 mi SE 11.5 mph - N/A   Clear
1:35 PM 90.1 °F 25.2 °F 10% 30.04 in 10.0 mi SSE 9.2 mph 16.1 mph N/A   Clear
1:55 PM 90.9 °F 22.5 °F 8% 30.03 in 10.0 mi ESE 6.9 mph 16.1 mph N/A   Clear
2:55 PM 91.8 °F 14.4 °F 6% 30.01 in 10.0 mi ENE 5.8 mph - N/A   Clear
3:15 PM 92.3 °F 13.8 °F 6% 30.00 in 10.0 mi ESE 8.1 mph - N/A   Clear
3:55 PM 91.6 °F 16.0 °F 6% 29.99 in 10.0 mi SSE 8.1 mph - N/A   Clear
4:15 PM 92.1 °F 15.4 °F 6% 29.97 in 10.0 mi SSE 4.6 mph 9.2 mph N/A   Clear
4:35 PM 94.1 °F 15.6 °F 6% 29.96 in 10.0 mi ESE 9.2 mph 17.3 mph N/A   Clear
4:55 PM 93.6 °F 16.2 °F 6% 29.95 in 10.0 mi SSE 11.5 mph - N/A   Clear
5:15 PM 94.1 °F 17.6 °F 6% 29.95 in 10.0 mi SE 16.1 mph 23.0 mph N/A   Clear
5:55 PM 93.9 °F 16.7 °F 6% 29.93 in 10.0 mi SE 13.8 mph - N/A   Clear
6:15 PM 93.4 °F 18.9 °F 7% 29.92 in 10.0 mi SE 16.1 mph - N/A   Clear
6:35 PM 92.7 °F 19.0 °F 7% 29.92 in 10.0 mi SSE 13.8 mph - N/A   Clear
6:55 PM 91.6 °F 20.1 °F 7% 29.92 in 10.0 mi SE 13.8 mph 19.6 mph N/A   Clear
7:15 PM 89.6 °F 24.4 °F 9% 29.92 in 10.0 mi SE 9.2 mph - N/A   Clear
7:35 PM 87.1 °F 25.3 °F 11% 29.92 in 10.0 mi SE 9.2 mph - N/A   Clear
7:55 PM 85.5 °F 27.0 °F 12% 29.92 in 10.0 mi SSE 6.9 mph - N/A   Clear
8:15 PM 82.6 °F 28.2 °F 14% 29.93 in 10.0 mi SSE 5.8 mph - N/A   Clear
8:35 PM 80.1 °F 28.2 °F 15% 29.93 in 10.0 mi SSE 6.9 mph - N/A   Clear
8:55 PM 82.9 °F 23.4 °F 11% 29.93 in 10.0 mi SSE 11.5 mph - N/A   Clear
9:15 PM 81.3 °F 23.5 °F 12% 29.94 in 10.0 mi SE 8.1 mph - N/A   Clear
9:35 PM 80.6 °F 23.5 °F 12% 29.94 in 10.0 mi South 9.2 mph - N/A   Clear
9:55 PM 80.1 °F 23.5 °F 12% 29.95 in 10.0 mi SSW 8.1 mph - N/A   Clear
10:15 PM 78.4 °F 23.2 °F 13% 29.96 in 10.0 mi SW 6.9 mph - N/A   Clear
10:35 PM 77.2 °F 23.4 °F 14% 29.96 in 10.0 mi SSW 8.1 mph - N/A   Clear
10:55 PM 75.2 °F 23.0 °F 14% 29.96 in 10.0 mi NNW 8.1 mph - N/A   Clear
11:15 PM 78.3 °F 25.0 °F 14% 29.96 in 10.0 mi NW 8.1 mph - N/A   Clear
11:35 PM 78.8 °F 25.2 °F 14% 29.95 in 10.0 mi SW 8.1 mph - N/A   Clear
11:55 PM 77.0 °F 24.6 °F 14% 29.96 in 10.0 mi SW 4.6 mph - N/A   Clear